<?xml version="1.0" encoding="UTF-8" standalone="no" ?>
<gpx xmlns="http://www.topografix.com/GPX/1/1" xmlns:xsi="http://www.w3.org/2001/XMLSchema-instance" xsi:schemaLocation="http://www.topografix.com/GPX/1/1 http://www.topografix.com/GPX/1/1/gpx.xsd" version="1.1" creator="VisuGPX - https://www.visugpx.com">
  <metadata>
    <name>st renan l'anildut</name>
  </metadata>
  <trk>
    <name><![CDATA[st renan l'anildut_1]]></name>
    <trkseg>
      <trkpt lat="48.44247" lon="-4.62882">
        <ele>34.115231</ele>
        <time>2012-03-04T19:23:26Z</time>
      </trkpt>
      <trkpt lat="48.44184" lon="-4.63046">
        <ele>29.251282</ele>
        <time>2012-03-04T19:23:26Z</time>
      </trkpt>
      <trkpt lat="48.44111" lon="-4.63299">
        <ele>27.629238</ele>
        <time>2012-03-04T19:23:26Z</time>
      </trkpt>
      <trkpt lat="48.44111" lon="-4.6352">
        <ele>27</ele>
        <time>2012-03-04T19:23:26Z</time>
      </trkpt>
      <trkpt lat="48.44096" lon="-4.63667">
        <ele>27.277182</ele>
        <time>2012-03-04T19:23:26Z</time>
      </trkpt>
      <trkpt lat="48.44159" lon="-4.63863">
        <ele>27.644909</ele>
        <time>2012-03-04T19:23:26Z</time>
      </trkpt>
      <trkpt lat="48.44245" lon="-4.64002">
        <ele>27.975512</ele>
        <time>2012-03-04T19:23:26Z</time>
      </trkpt>
      <trkpt lat="48.44301" lon="-4.64127">
        <ele>28</ele>
        <time>2012-03-04T19:23:26Z</time>
      </trkpt>
      <trkpt lat="48.44347" lon="-4.64165">
        <ele>28.111124</ele>
        <time>2012-03-04T19:23:26Z</time>
      </trkpt>
      <trkpt lat="48.44343" lon="-4.64366">
        <ele>27.454124</ele>
        <time>2012-03-04T19:23:26Z</time>
      </trkpt>
      <trkpt lat="48.44289" lon="-4.64419">
        <ele>27</ele>
        <time>2012-03-04T19:23:26Z</time>
      </trkpt>
      <trkpt lat="48.44287" lon="-4.64607">
        <ele>28.249901</ele>
        <time>2012-03-04T19:23:26Z</time>
      </trkpt>
      <trkpt lat="48.44071" lon="-4.64529">
        <ele>29</ele>
        <time>2012-03-04T19:23:26Z</time>
      </trkpt>
      <trkpt lat="48.44077" lon="-4.64611">
        <ele>29</ele>
        <time>2012-03-04T19:23:26Z</time>
      </trkpt>
      <trkpt lat="48.44048" lon="-4.64705">
        <ele>28.552126</ele>
        <time>2012-03-04T19:23:26Z</time>
      </trkpt>
      <trkpt lat="48.44284" lon="-4.65214">
        <ele>26.494005</ele>
        <time>2012-03-04T19:23:26Z</time>
      </trkpt>
      <trkpt lat="48.44352" lon="-4.65281">
        <ele>26.340874</ele>
        <time>2012-03-04T19:23:26Z</time>
      </trkpt>
      <trkpt lat="48.44416" lon="-4.65319">
        <ele>26</ele>
        <time>2012-03-04T19:23:26Z</time>
      </trkpt>
      <trkpt lat="48.44469" lon="-4.65442">
        <ele>26.303959</ele>
        <time>2012-03-04T19:23:26Z</time>
      </trkpt>
      <trkpt lat="48.44473" lon="-4.65501">
        <ele>26.602493</ele>
        <time>2012-03-04T19:23:26Z</time>
      </trkpt>
      <trkpt lat="48.44631" lon="-4.65961">
        <ele>27.10235</ele>
        <time>2012-03-04T19:23:26Z</time>
      </trkpt>
      <trkpt lat="48.44687" lon="-4.66055">
        <ele>27.248907</ele>
        <time>2012-03-04T19:23:26Z</time>
      </trkpt>
      <trkpt lat="48.44765" lon="-4.66024">
        <ele>25.658031</ele>
        <time>2012-03-04T19:23:26Z</time>
      </trkpt>
      <trkpt lat="48.44803" lon="-4.66042">
        <ele>25.871939</ele>
        <time>2012-03-04T19:23:26Z</time>
      </trkpt>
      <trkpt lat="48.44874" lon="-4.66">
        <ele>33.326138</ele>
        <time>2012-03-04T19:23:26Z</time>
      </trkpt>
      <trkpt lat="48.44861" lon="-4.65966">
        <ele>32.757969</ele>
        <time>2012-03-04T19:23:26Z</time>
      </trkpt>
      <trkpt lat="48.44961" lon="-4.65866">
        <ele>41.40374</ele>
        <time>2012-03-04T19:23:26Z</time>
      </trkpt>
      <trkpt lat="48.45042" lon="-4.65836">
        <ele>46.044189</ele>
        <time>2012-03-04T19:23:26Z</time>
      </trkpt>
      <trkpt lat="48.45103" lon="-4.65791">
        <ele>48.791695</ele>
        <time>2012-03-04T19:23:26Z</time>
      </trkpt>
      <trkpt lat="48.45137" lon="-4.65699">
        <ele>50.10574</ele>
        <time>2012-03-04T19:23:26Z</time>
      </trkpt>
      <trkpt lat="48.45129" lon="-4.65642">
        <ele>49.983162</ele>
        <time>2012-03-04T19:23:26Z</time>
      </trkpt>
      <trkpt lat="48.45179" lon="-4.65635">
        <ele>53.546318</ele>
        <time>2012-03-04T19:23:26Z</time>
      </trkpt>
      <trkpt lat="48.45196" lon="-4.65596">
        <ele>56.015003</ele>
        <time>2012-03-04T19:23:26Z</time>
      </trkpt>
      <trkpt lat="48.45276" lon="-4.65602">
        <ele>56.138374</ele>
        <time>2012-03-04T19:23:26Z</time>
      </trkpt>
      <trkpt lat="48.45248" lon="-4.65807">
        <ele>41.788517</ele>
        <time>2012-03-04T19:23:26Z</time>
      </trkpt>
      <trkpt lat="48.45263" lon="-4.65888">
        <ele>38.013451</ele>
        <time>2012-03-04T19:23:26Z</time>
      </trkpt>
      <trkpt lat="48.45293" lon="-4.65947">
        <ele>34.518463</ele>
        <time>2012-03-04T19:23:26Z</time>
      </trkpt>
      <trkpt lat="48.45272" lon="-4.66177">
        <ele>26.504776</ele>
        <time>2012-03-04T19:23:26Z</time>
      </trkpt>
      <trkpt lat="48.45272" lon="-4.66177">
        <ele>26.504776</ele>
        <time>2012-03-04T19:23:26Z</time>
      </trkpt>
      <trkpt lat="48.453" lon="-4.66262">
        <ele>24.150166</ele>
        <time>2012-03-04T19:23:26Z</time>
      </trkpt>
      <trkpt lat="48.45393" lon="-4.6638">
        <ele>24.158512</ele>
        <time>2012-03-04T19:23:26Z</time>
      </trkpt>
      <trkpt lat="48.45422" lon="-4.66361">
        <ele>25.428606</ele>
        <time>2012-03-04T19:23:26Z</time>
      </trkpt>
      <trkpt lat="48.45474" lon="-4.66369">
        <ele>27.724701</ele>
        <time>2012-03-04T19:23:26Z</time>
      </trkpt>
      <trkpt lat="48.45628" lon="-4.6639">
        <ele>37.991253</ele>
        <time>2012-03-04T19:23:26Z</time>
      </trkpt>
      <trkpt lat="48.45701" lon="-4.66383">
        <ele>41.768963</ele>
        <time>2012-03-04T19:23:26Z</time>
      </trkpt>
      <trkpt lat="48.4576" lon="-4.66409">
        <ele>42.681454</ele>
        <time>2012-03-04T19:23:26Z</time>
      </trkpt>
      <trkpt lat="48.45841" lon="-4.66422">
        <ele>46.795555</ele>
        <time>2012-03-04T19:23:26Z</time>
      </trkpt>
      <trkpt lat="48.45946" lon="-4.66454">
        <ele>55.027779</ele>
        <time>2012-03-04T19:23:26Z</time>
      </trkpt>
      <trkpt lat="48.46074" lon="-4.66521">
        <ele>67.649307</ele>
        <time>2012-03-04T19:23:26Z</time>
      </trkpt>
      <trkpt lat="48.46125" lon="-4.66536">
        <ele>71.606621</ele>
        <time>2012-03-04T19:23:26Z</time>
      </trkpt>
      <trkpt lat="48.46154" lon="-4.6653">
        <ele>73.037041</ele>
        <time>2012-03-04T19:23:26Z</time>
      </trkpt>
      <trkpt lat="48.46205" lon="-4.66604">
        <ele>78.078735</ele>
        <time>2012-03-04T19:23:26Z</time>
      </trkpt>
      <trkpt lat="48.46277" lon="-4.66638">
        <ele>81.036392</ele>
        <time>2012-03-04T19:23:26Z</time>
      </trkpt>
      <trkpt lat="48.46261" lon="-4.66692">
        <ele>79.50779</ele>
        <time>2012-03-04T19:23:26Z</time>
      </trkpt>
      <trkpt lat="48.4626" lon="-4.6675">
        <ele>78.91996</ele>
        <time>2012-03-04T19:23:26Z</time>
      </trkpt>
      <trkpt lat="48.46238" lon="-4.6685">
        <ele>82.515694</ele>
        <time>2012-03-04T19:23:26Z</time>
      </trkpt>
      <trkpt lat="48.46233" lon="-4.66924">
        <ele>84.907204</ele>
        <time>2012-03-04T19:23:26Z</time>
      </trkpt>
      <trkpt lat="48.46388" lon="-4.66893">
        <ele>91.805122</ele>
        <time>2012-03-04T19:23:26Z</time>
      </trkpt>
      <trkpt lat="48.46458" lon="-4.6686">
        <ele>92.17569</ele>
        <time>2012-03-04T19:23:26Z</time>
      </trkpt>
      <trkpt lat="48.46581" lon="-4.66873">
        <ele>93.178406</ele>
        <time>2012-03-04T19:23:26Z</time>
      </trkpt>
      <trkpt lat="48.4668" lon="-4.66851">
        <ele>95.31881</ele>
        <time>2012-03-04T19:23:26Z</time>
      </trkpt>
      <trkpt lat="48.46723" lon="-4.66851">
        <ele>95.894257</ele>
        <time>2012-03-04T19:23:26Z</time>
      </trkpt>
      <trkpt lat="48.46779" lon="-4.66881">
        <ele>94.605431</ele>
        <time>2012-03-04T19:23:26Z</time>
      </trkpt>
      <trkpt lat="48.46873" lon="-4.66874">
        <ele>94.794334</ele>
        <time>2012-03-04T19:23:26Z</time>
      </trkpt>
      <trkpt lat="48.46995" lon="-4.66872">
        <ele>90.377609</ele>
        <time>2012-03-04T19:23:26Z</time>
      </trkpt>
      <trkpt lat="48.47043" lon="-4.66882">
        <ele>88.447144</ele>
        <time>2012-03-04T19:23:26Z</time>
      </trkpt>
      <trkpt lat="48.47201" lon="-4.67023">
        <ele>89.614365</ele>
        <time>2012-03-04T19:23:26Z</time>
      </trkpt>
      <trkpt lat="48.47287" lon="-4.67132">
        <ele>86.130783</ele>
        <time>2012-03-04T19:23:26Z</time>
      </trkpt>
      <trkpt lat="48.47355" lon="-4.67196">
        <ele>83.078377</ele>
        <time>2012-03-04T19:23:26Z</time>
      </trkpt>
      <trkpt lat="48.47449" lon="-4.6727">
        <ele>75.400513</ele>
        <time>2012-03-04T19:23:26Z</time>
      </trkpt>
      <trkpt lat="48.47528" lon="-4.67411">
        <ele>68.408081</ele>
        <time>2012-03-04T19:23:26Z</time>
      </trkpt>
      <trkpt lat="48.47563" lon="-4.67449">
        <ele>69.473991</ele>
        <time>2012-03-04T19:23:26Z</time>
      </trkpt>
      <trkpt lat="48.4757" lon="-4.67503">
        <ele>71.55735</ele>
        <time>2012-03-04T19:23:26Z</time>
      </trkpt>
      <trkpt lat="48.47629" lon="-4.67508">
        <ele>76.607239</ele>
        <time>2012-03-04T19:23:26Z</time>
      </trkpt>
      <trkpt lat="48.47652" lon="-4.67493">
        <ele>78.17128</ele>
        <time>2012-03-04T19:23:26Z</time>
      </trkpt>
      <trkpt lat="48.47741" lon="-4.67589">
        <ele>80.238838</ele>
        <time>2012-03-04T19:23:26Z</time>
      </trkpt>
      <trkpt lat="48.47734" lon="-4.67482">
        <ele>82.177727</ele>
        <time>2012-03-04T19:23:26Z</time>
      </trkpt>
      <trkpt lat="48.47781" lon="-4.6729">
        <ele>82.601898</ele>
        <time>2012-03-04T19:23:26Z</time>
      </trkpt>
      <trkpt lat="48.47889" lon="-4.66989">
        <ele>81.90152</ele>
        <time>2012-03-04T19:23:26Z</time>
      </trkpt>
      <trkpt lat="48.48035" lon="-4.66864">
        <ele>86.103127</ele>
        <time>2012-03-04T19:23:26Z</time>
      </trkpt>
      <trkpt lat="48.48027" lon="-4.67182">
        <ele>89.086731</ele>
        <time>2012-03-04T19:23:26Z</time>
      </trkpt>
      <trkpt lat="48.48076" lon="-4.67389">
        <ele>90.119698</ele>
        <time>2012-03-04T19:23:26Z</time>
      </trkpt>
      <trkpt lat="48.48057" lon="-4.67668">
        <ele>87.803909</ele>
        <time>2012-03-04T19:23:26Z</time>
      </trkpt>
      <trkpt lat="48.48042" lon="-4.67831">
        <ele>86.088104</ele>
        <time>2012-03-04T19:23:26Z</time>
      </trkpt>
      <trkpt lat="48.48072" lon="-4.68043">
        <ele>84.309738</ele>
        <time>2012-03-04T19:23:26Z</time>
      </trkpt>
      <trkpt lat="48.48109" lon="-4.68198">
        <ele>83</ele>
        <time>2012-03-04T19:23:26Z</time>
      </trkpt>
      <trkpt lat="48.48109" lon="-4.68454">
        <ele>80.337051</ele>
        <time>2012-03-04T19:23:26Z</time>
      </trkpt>
      <trkpt lat="48.4795" lon="-4.68812">
        <ele>74.498329</ele>
        <time>2012-03-04T19:23:26Z</time>
      </trkpt>
      <trkpt lat="48.47891" lon="-4.6887">
        <ele>72.712585</ele>
        <time>2012-03-04T19:23:26Z</time>
      </trkpt>
      <trkpt lat="48.47829" lon="-4.69126">
        <ele>66.233521</ele>
        <time>2012-03-04T19:23:26Z</time>
      </trkpt>
      <trkpt lat="48.4784" lon="-4.69233">
        <ele>66.089256</ele>
        <time>2012-03-04T19:23:26Z</time>
      </trkpt>
      <trkpt lat="48.47724" lon="-4.69262">
        <ele>62.040581</ele>
        <time>2012-03-04T19:23:26Z</time>
      </trkpt>
      <trkpt lat="48.4776" lon="-4.69743">
        <ele>61.987553</ele>
        <time>2012-03-04T19:23:26Z</time>
      </trkpt>
      <trkpt lat="48.47529" lon="-4.69778">
        <ele>46.852695</ele>
        <time>2012-03-04T19:23:26Z</time>
      </trkpt>
      <trkpt lat="48.47505" lon="-4.69937">
        <ele>49.027027</ele>
        <time>2012-03-04T19:23:26Z</time>
      </trkpt>
      <trkpt lat="48.47437" lon="-4.69946">
        <ele>42.441998</ele>
        <time>2012-03-04T19:23:26Z</time>
      </trkpt>
      <trkpt lat="48.47441" lon="-4.70118">
        <ele>32.001518</ele>
        <time>2012-03-04T19:23:26Z</time>
      </trkpt>
      <trkpt lat="48.47395" lon="-4.70258">
        <ele>30.54549</ele>
        <time>2012-03-04T19:23:26Z</time>
      </trkpt>
      <trkpt lat="48.47415" lon="-4.70362">
        <ele>30.76247</ele>
        <time>2012-03-04T19:23:26Z</time>
      </trkpt>
      <trkpt lat="48.47396" lon="-4.70434">
        <ele>29.224962</ele>
        <time>2012-03-04T19:23:26Z</time>
      </trkpt>
      <trkpt lat="48.4733" lon="-4.705">
        <ele>25.894869</ele>
        <time>2012-03-04T19:23:26Z</time>
      </trkpt>
      <trkpt lat="48.47315" lon="-4.70568">
        <ele>27.042971</ele>
        <time>2012-03-04T19:23:26Z</time>
      </trkpt>
      <trkpt lat="48.47294" lon="-4.70619">
        <ele>25.310568</ele>
        <time>2012-03-04T19:23:26Z</time>
      </trkpt>
      <trkpt lat="48.47233" lon="-4.70602">
        <ele>26.970179</ele>
        <time>2012-03-04T19:23:26Z</time>
      </trkpt>
      <trkpt lat="48.47179" lon="-4.70629">
        <ele>35.812862</ele>
        <time>2012-03-04T19:23:26Z</time>
      </trkpt>
      <trkpt lat="48.47082" lon="-4.70638">
        <ele>40.985622</ele>
        <time>2012-03-04T19:23:26Z</time>
      </trkpt>
      <trkpt lat="48.47025" lon="-4.70613">
        <ele>40.787685</ele>
        <time>2012-03-04T19:23:26Z</time>
      </trkpt>
      <trkpt lat="48.4705" lon="-4.7078">
        <ele>37.153629</ele>
        <time>2012-03-04T19:23:26Z</time>
      </trkpt>
      <trkpt lat="48.47045" lon="-4.70964">
        <ele>34.457466</ele>
        <time>2012-03-04T19:23:26Z</time>
      </trkpt>
      <trkpt lat="48.47038" lon="-4.71025">
        <ele>32.471436</ele>
        <time>2012-03-04T19:23:26Z</time>
      </trkpt>
      <trkpt lat="48.47063" lon="-4.71156">
        <ele>31.618174</ele>
        <time>2012-03-04T19:23:26Z</time>
      </trkpt>
      <trkpt lat="48.47059" lon="-4.71305">
        <ele>28.035776</ele>
        <time>2012-03-04T19:23:26Z</time>
      </trkpt>
      <trkpt lat="48.47014" lon="-4.71476">
        <ele>19.403959</ele>
        <time>2012-03-04T19:23:26Z</time>
      </trkpt>
      <trkpt lat="48.46977" lon="-4.71563">
        <ele>15.330825</ele>
        <time>2012-03-04T19:23:26Z</time>
      </trkpt>
      <trkpt lat="48.46906" lon="-4.71624">
        <ele>7.72417</ele>
        <time>2012-03-04T19:23:26Z</time>
      </trkpt>
      <trkpt lat="48.46865" lon="-4.71671">
        <ele>3.857111</ele>
        <time>2012-03-04T19:23:26Z</time>
      </trkpt>
      <trkpt lat="48.46822" lon="-4.71696">
        <ele>5.091712</ele>
        <time>2012-03-04T19:23:26Z</time>
      </trkpt>
      <trkpt lat="48.46868" lon="-4.71769">
        <ele>5.645092</ele>
        <time>2012-03-04T19:23:26Z</time>
      </trkpt>
      <trkpt lat="48.4691" lon="-4.71801">
        <ele>7.979855</ele>
        <time>2012-03-04T19:23:26Z</time>
      </trkpt>
      <trkpt lat="48.46939" lon="-4.71796">
        <ele>6.44889</ele>
        <time>2012-03-04T19:23:26Z</time>
      </trkpt>
      <trkpt lat="48.47001" lon="-4.71835">
        <ele>6.96347</ele>
        <time>2012-03-04T19:23:26Z</time>
      </trkpt>
      <trkpt lat="48.47022" lon="-4.71878">
        <ele>8.105612</ele>
        <time>2012-03-04T19:23:26Z</time>
      </trkpt>
      <trkpt lat="48.47074" lon="-4.71902">
        <ele>8.166517</ele>
        <time>2012-03-04T19:23:26Z</time>
      </trkpt>
      <trkpt lat="48.47174" lon="-4.71885">
        <ele>5.749079</ele>
        <time>2012-03-04T19:23:26Z</time>
      </trkpt>
      <trkpt lat="48.47257" lon="-4.71874">
        <ele>6.837377</ele>
        <time>2012-03-04T19:23:26Z</time>
      </trkpt>
      <trkpt lat="48.4731" lon="-4.71912">
        <ele>8.661964</ele>
        <time>2012-03-04T19:23:26Z</time>
      </trkpt>
      <trkpt lat="48.47413" lon="-4.71917">
        <ele>5.869087</ele>
        <time>2012-03-04T19:23:26Z</time>
      </trkpt>
      <trkpt lat="48.47464" lon="-4.72043">
        <ele>5.684012</ele>
        <time>2012-03-04T19:23:26Z</time>
      </trkpt>
      <trkpt lat="48.47468" lon="-4.72123">
        <ele>3.839948</ele>
        <time>2012-03-04T19:23:26Z</time>
      </trkpt>
      <trkpt lat="48.47456" lon="-4.72223">
        <ele>5.353193</ele>
        <time>2012-03-04T19:23:26Z</time>
      </trkpt>
      <trkpt lat="48.47362" lon="-4.72223">
        <ele>11.897205</ele>
        <time>2012-03-04T19:23:26Z</time>
      </trkpt>
      <trkpt lat="48.47324" lon="-4.72417">
        <ele>9.92928</ele>
        <time>2012-03-04T19:23:26Z</time>
      </trkpt>
      <trkpt lat="48.47324" lon="-4.72417">
        <ele>9.92928</ele>
        <time>2012-03-04T19:23:26Z</time>
      </trkpt>
      <trkpt lat="48.47324" lon="-4.72417">
        <ele>9.92928</ele>
        <time>2012-03-04T19:23:26Z</time>
      </trkpt>
      <trkpt lat="48.47324" lon="-4.72417">
        <ele>9.92928</ele>
        <time>2012-03-04T19:23:26Z</time>
      </trkpt>
      <trkpt lat="48.47327" lon="-4.7246">
        <ele>10.518768</ele>
        <time>2012-03-04T19:23:26Z</time>
      </trkpt>
      <trkpt lat="48.47375" lon="-4.72463">
        <ele>4.175796</ele>
        <time>2012-03-04T19:23:26Z</time>
      </trkpt>
      <trkpt lat="48.47388" lon="-4.72583">
        <ele>5.583166</ele>
        <time>2012-03-04T19:23:26Z</time>
      </trkpt>
      <trkpt lat="48.47421" lon="-4.72627">
        <ele>4.367857</ele>
        <time>2012-03-04T19:23:26Z</time>
      </trkpt>
      <trkpt lat="48.47405" lon="-4.72805">
        <ele>5.797807</ele>
        <time>2012-03-04T19:23:26Z</time>
      </trkpt>
      <trkpt lat="48.47372" lon="-4.72822">
        <ele>10.446089</ele>
        <time>2012-03-04T19:23:26Z</time>
      </trkpt>
      <trkpt lat="48.47362" lon="-4.72948">
        <ele>10.957068</ele>
        <time>2012-03-04T19:23:26Z</time>
      </trkpt>
      <trkpt lat="48.47386" lon="-4.73008">
        <ele>6.523426</ele>
        <time>2012-03-04T19:23:26Z</time>
      </trkpt>
      <trkpt lat="48.47389" lon="-4.73076">
        <ele>3.330926</ele>
        <time>2012-03-04T19:23:26Z</time>
      </trkpt>
      <trkpt lat="48.47306" lon="-4.73129">
        <ele>10.575952</ele>
        <time>2012-03-04T19:23:26Z</time>
      </trkpt>
      <trkpt lat="48.47269" lon="-4.73207">
        <ele>9.006671</ele>
        <time>2012-03-04T19:23:26Z</time>
      </trkpt>
      <trkpt lat="48.47263" lon="-4.73261">
        <ele>7.420248</ele>
        <time>2012-03-04T19:23:26Z</time>
      </trkpt>
      <trkpt lat="48.47277" lon="-4.73336">
        <ele>3.600017</ele>
        <time>2012-03-04T19:23:26Z</time>
      </trkpt>
      <trkpt lat="48.47259" lon="-4.73341">
        <ele>3.209536</ele>
        <time>2012-03-04T19:23:26Z</time>
      </trkpt>
      <trkpt lat="48.47216" lon="-4.73271">
        <ele>8.200582</ele>
        <time>2012-03-04T19:23:26Z</time>
      </trkpt>
      <trkpt lat="48.47173" lon="-4.73236">
        <ele>9.403101</ele>
        <time>2012-03-04T19:23:26Z</time>
      </trkpt>
      <trkpt lat="48.47125" lon="-4.73201">
        <ele>9.152019</ele>
        <time>2012-03-04T19:23:26Z</time>
      </trkpt>
      <trkpt lat="48.47118" lon="-4.73217">
        <ele>7.919707</ele>
        <time>2012-03-04T19:23:26Z</time>
      </trkpt>
      <trkpt lat="48.47145" lon="-4.73274">
        <ele>6.39909</ele>
        <time>2012-03-04T19:23:26Z</time>
      </trkpt>
      <trkpt lat="48.47149" lon="-4.73325">
        <ele>6.899068</ele>
        <time>2012-03-04T19:23:26Z</time>
      </trkpt>
      <trkpt lat="48.47167" lon="-4.73347">
        <ele>4.826308</ele>
        <time>2012-03-04T19:23:26Z</time>
      </trkpt>
      <trkpt lat="48.47166" lon="-4.73386">
        <ele>5.212622</ele>
        <time>2012-03-04T19:23:26Z</time>
      </trkpt>
      <trkpt lat="48.4715" lon="-4.73428">
        <ele>8.738741</ele>
        <time>2012-03-04T19:23:26Z</time>
      </trkpt>
      <trkpt lat="48.4716" lon="-4.73471">
        <ele>7.513552</ele>
        <time>2012-03-04T19:23:26Z</time>
      </trkpt>
      <trkpt lat="48.47176" lon="-4.73478">
        <ele>4.768831</ele>
        <time>2012-03-04T19:23:26Z</time>
      </trkpt>
      <trkpt lat="48.47192" lon="-4.73543">
        <ele>4.216947</ele>
        <time>2012-03-04T19:23:26Z</time>
      </trkpt>
      <trkpt lat="48.47184" lon="-4.73601">
        <ele>5.619052</ele>
        <time>2012-03-04T19:23:26Z</time>
      </trkpt>
      <trkpt lat="48.47187" lon="-4.73632">
        <ele>4.232628</ele>
        <time>2012-03-04T19:23:26Z</time>
      </trkpt>
      <trkpt lat="48.47142" lon="-4.73626">
        <ele>9.390879</ele>
        <time>2012-03-04T19:23:26Z</time>
      </trkpt>
      <trkpt lat="48.47084" lon="-4.73655">
        <ele>9.336314</ele>
        <time>2012-03-04T19:23:26Z</time>
      </trkpt>
      <trkpt lat="48.47053" lon="-4.73705">
        <ele>6.802497</ele>
        <time>2012-03-04T19:23:26Z</time>
      </trkpt>
      <trkpt lat="48.47078" lon="-4.73787">
        <ele>4.759365</ele>
        <time>2012-03-04T19:23:26Z</time>
      </trkpt>
      <trkpt lat="48.47094" lon="-4.73796">
        <ele>3.015343</ele>
        <time>2012-03-04T19:23:26Z</time>
      </trkpt>
      <trkpt lat="48.4709" lon="-4.73842">
        <ele>5.575878</ele>
        <time>2012-03-04T19:23:26Z</time>
      </trkpt>
      <trkpt lat="48.471" lon="-4.73927">
        <ele>3.350628</ele>
        <time>2012-03-04T19:23:26Z</time>
      </trkpt>
      <trkpt lat="48.47089" lon="-4.73955">
        <ele>4.230614</ele>
        <time>2012-03-04T19:23:26Z</time>
      </trkpt>
      <trkpt lat="48.47023" lon="-4.73985">
        <ele>10.387926</ele>
        <time>2012-03-04T19:23:26Z</time>
      </trkpt>
      <trkpt lat="48.46973" lon="-4.74007">
        <ele>9.131224</ele>
        <time>2012-03-04T19:23:26Z</time>
      </trkpt>
      <trkpt lat="48.46976" lon="-4.74032">
        <ele>8.154482</ele>
        <time>2012-03-04T19:23:26Z</time>
      </trkpt>
      <trkpt lat="48.47022" lon="-4.74019">
        <ele>6.724349</ele>
        <time>2012-03-04T19:23:26Z</time>
      </trkpt>
      <trkpt lat="48.47047" lon="-4.74044">
        <ele>6.227124</ele>
        <time>2012-03-04T19:23:26Z</time>
      </trkpt>
      <trkpt lat="48.47169" lon="-4.74074">
        <ele>1.903863</ele>
        <time>2012-03-04T19:23:26Z</time>
      </trkpt>
      <trkpt lat="48.47189" lon="-4.74204">
        <ele>0.912231</ele>
        <time>2012-03-04T19:23:26Z</time>
      </trkpt>
      <trkpt lat="48.47203" lon="-4.74313">
        <ele>0.360625</ele>
        <time>2012-03-04T19:23:26Z</time>
      </trkpt>
      <trkpt lat="48.47177" lon="-4.74435">
        <ele>2.410743</ele>
        <time>2012-03-04T19:23:26Z</time>
      </trkpt>
      <trkpt lat="48.47154" lon="-4.74585">
        <ele>0.402245</ele>
        <time>2012-03-04T19:23:26Z</time>
      </trkpt>
      <trkpt lat="48.47128" lon="-4.74644">
        <ele>2.68543</ele>
        <time>2012-03-04T19:23:26Z</time>
      </trkpt>
      <trkpt lat="48.47067" lon="-4.74692">
        <ele>5.010849</ele>
        <time>2012-03-04T19:23:26Z</time>
      </trkpt>
      <trkpt lat="48.47056" lon="-4.74724">
        <ele>3.962775</ele>
        <time>2012-03-04T19:23:26Z</time>
      </trkpt>
      <trkpt lat="48.47015" lon="-4.74773">
        <ele>7.298417</ele>
        <time>2012-03-04T19:23:26Z</time>
      </trkpt>
      <trkpt lat="48.47028" lon="-4.74792">
        <ele>7.187027</ele>
        <time>2012-03-04T19:23:26Z</time>
      </trkpt>
      <trkpt lat="48.47082" lon="-4.74793">
        <ele>2.388343</ele>
        <time>2012-03-04T19:23:26Z</time>
      </trkpt>
      <trkpt lat="48.47112" lon="-4.74862">
        <ele>4.265945</ele>
        <time>2012-03-04T19:23:26Z</time>
      </trkpt>
      <trkpt lat="48.47099" lon="-4.74895">
        <ele>6.853821</ele>
        <time>2012-03-04T19:23:26Z</time>
      </trkpt>
      <trkpt lat="48.47116" lon="-4.74954">
        <ele>4.522874</ele>
        <time>2012-03-04T19:23:26Z</time>
      </trkpt>
      <trkpt lat="48.47115" lon="-4.75005">
        <ele>4.496897</ele>
        <time>2012-03-04T19:23:26Z</time>
      </trkpt>
      <trkpt lat="48.47105" lon="-4.75051">
        <ele>4.675037</ele>
        <time>2012-03-04T19:23:26Z</time>
      </trkpt>
      <trkpt lat="48.4707" lon="-4.75086">
        <ele>7.353256</ele>
        <time>2012-03-04T19:23:26Z</time>
      </trkpt>
      <trkpt lat="48.4706" lon="-4.75108">
        <ele>7.631227</ele>
        <time>2012-03-04T19:23:26Z</time>
      </trkpt>
      <trkpt lat="48.47038" lon="-4.75105">
        <ele>11.737192</ele>
        <time>2012-03-04T19:23:26Z</time>
      </trkpt>
      <trkpt lat="48.47045" lon="-4.75153">
        <ele>8.03485</ele>
        <time>2012-03-04T19:23:26Z</time>
      </trkpt>
      <trkpt lat="48.47061" lon="-4.75166">
        <ele>4.178827</ele>
        <time>2012-03-04T19:23:26Z</time>
      </trkpt>
      <trkpt lat="48.47008" lon="-4.75233">
        <ele>8.164618</ele>
        <time>2012-03-04T19:23:26Z</time>
      </trkpt>
      <trkpt lat="48.47011" lon="-4.75312">
        <ele>4.093419</ele>
        <time>2012-03-04T19:23:26Z</time>
      </trkpt>
      <trkpt lat="48.46909" lon="-4.75286">
        <ele>7.732592</ele>
        <time>2012-03-04T19:23:26Z</time>
      </trkpt>
      <trkpt lat="48.46811" lon="-4.75297">
        <ele>6.340268</ele>
        <time>2012-03-04T19:23:26Z</time>
      </trkpt>
      <trkpt lat="48.46703" lon="-4.754">
        <ele>5.336429</ele>
        <time>2012-03-04T19:23:26Z</time>
      </trkpt>
      <trkpt lat="48.46683" lon="-4.75436">
        <ele>3.105973</ele>
        <time>2012-03-04T19:23:26Z</time>
      </trkpt>
      <trkpt lat="48.46574" lon="-4.7533">
        <ele>5.069219</ele>
        <time>2012-03-04T19:23:26Z</time>
      </trkpt>
      <trkpt lat="48.46542" lon="-4.75317">
        <ele>5.449476</ele>
        <time>2012-03-04T19:23:26Z</time>
      </trkpt>
      <trkpt lat="48.46486" lon="-4.75315">
        <ele>5.112074</ele>
        <time>2012-03-04T19:23:26Z</time>
      </trkpt>
      <trkpt lat="48.46452" lon="-4.75315">
        <ele>4.56857</ele>
        <time>2012-03-04T19:23:26Z</time>
      </trkpt>
      <trkpt lat="48.46457" lon="-4.75376">
        <ele>6.567838</ele>
        <time>2012-03-04T19:23:26Z</time>
      </trkpt>
      <trkpt lat="48.4646" lon="-4.75404">
        <ele>8.169909</ele>
        <time>2012-03-04T19:23:26Z</time>
      </trkpt>
      <trkpt lat="48.46535" lon="-4.75428">
        <ele>2.889829</ele>
        <time>2012-03-04T19:23:26Z</time>
      </trkpt>
      <trkpt lat="48.46547" lon="-4.75527">
        <ele>3.099533</ele>
        <time>2012-03-04T19:23:26Z</time>
      </trkpt>
      <trkpt lat="48.46504" lon="-4.75559">
        <ele>4.807595</ele>
        <time>2012-03-04T19:23:26Z</time>
      </trkpt>
      <trkpt lat="48.46424" lon="-4.75591">
        <ele>9.527834</ele>
        <time>2012-03-04T19:23:26Z</time>
      </trkpt>
      <trkpt lat="48.46369" lon="-4.75645">
        <ele>10.208268</ele>
        <time>2012-03-04T19:23:26Z</time>
      </trkpt>
      <trkpt lat="48.46332" lon="-4.75701">
        <ele>8.646174</ele>
        <time>2012-03-04T19:23:26Z</time>
      </trkpt>
      <trkpt lat="48.46297" lon="-4.7574">
        <ele>9.101973</ele>
        <time>2012-03-04T19:23:26Z</time>
      </trkpt>
      <trkpt lat="48.46295" lon="-4.75784">
        <ele>4.556626</ele>
        <time>2012-03-04T19:23:26Z</time>
      </trkpt>
      <trkpt lat="48.46226" lon="-4.7578">
        <ele>7.758566</ele>
        <time>2012-03-04T19:23:26Z</time>
      </trkpt>
      <trkpt lat="48.46169" lon="-4.75825">
        <ele>4.539484</ele>
        <time>2012-03-04T19:23:26Z</time>
      </trkpt>
      <trkpt lat="48.4612" lon="-4.75829">
        <ele>4.508339</ele>
        <time>2012-03-04T19:23:26Z</time>
      </trkpt>
      <trkpt lat="48.46091" lon="-4.75774">
        <ele>5.389249</ele>
        <time>2012-03-04T19:23:26Z</time>
      </trkpt>
      <trkpt lat="48.46048" lon="-4.7578">
        <ele>8.708269</ele>
        <time>2012-03-04T19:23:26Z</time>
      </trkpt>
      <trkpt lat="48.46033" lon="-4.75833">
        <ele>8.794638</ele>
        <time>2012-03-04T19:23:26Z</time>
      </trkpt>
      <trkpt lat="48.46036" lon="-4.75898">
        <ele>5.401051</ele>
        <time>2012-03-04T19:23:26Z</time>
      </trkpt>
      <trkpt lat="48.45993" lon="-4.75933">
        <ele>7.593468</ele>
        <time>2012-03-04T19:23:26Z</time>
      </trkpt>
      <trkpt lat="48.45964" lon="-4.75955">
        <ele>7.515924</ele>
        <time>2012-03-04T19:23:26Z</time>
      </trkpt>
      <trkpt lat="48.4597" lon="-4.76019">
        <ele>8.245305</ele>
        <time>2012-03-04T19:23:26Z</time>
      </trkpt>
      <trkpt lat="48.4599" lon="-4.76023">
        <ele>8.89552</ele>
        <time>2012-03-04T19:23:26Z</time>
      </trkpt>
      <trkpt lat="48.4593" lon="-4.7608">
        <ele>14.915687</ele>
        <time>2012-03-04T19:23:26Z</time>
      </trkpt>
      <trkpt lat="48.45855" lon="-4.76101">
        <ele>10.891282</ele>
        <time>2012-03-04T19:23:26Z</time>
      </trkpt>
      <trkpt lat="48.45812" lon="-4.7619">
        <ele>16.32987</ele>
        <time>2012-03-04T19:23:26Z</time>
      </trkpt>
      <trkpt lat="48.45706" lon="-4.76278">
        <ele>19.529591</ele>
        <time>2012-03-04T19:23:26Z</time>
      </trkpt>
      <trkpt lat="48.45643" lon="-4.76258">
        <ele>21.649746</ele>
        <time>2012-03-04T19:23:26Z</time>
      </trkpt>
      <trkpt lat="48.45651" lon="-4.76187">
        <ele>22.612766</ele>
        <time>2012-03-04T19:23:26Z</time>
      </trkpt>
      <trkpt lat="48.45666" lon="-4.76149">
        <ele>21.481607</ele>
        <time>2012-03-04T19:23:26Z</time>
      </trkpt>
      <trkpt lat="48.45675" lon="-4.76091">
        <ele>17.988564</ele>
        <time>2012-03-04T19:23:26Z</time>
      </trkpt>
      <trkpt lat="48.45644" lon="-4.76075">
        <ele>16.955406</ele>
        <time>2012-03-04T19:23:26Z</time>
      </trkpt>
      <trkpt lat="48.45637" lon="-4.7605">
        <ele>13.808681</ele>
        <time>2012-03-04T19:23:26Z</time>
      </trkpt>
      <trkpt lat="48.45541" lon="-4.76052">
        <ele>14.215372</ele>
        <time>2012-03-04T19:23:26Z</time>
      </trkpt>
      <trkpt lat="48.45478" lon="-4.7607">
        <ele>14.194242</ele>
        <time>2012-03-04T19:23:26Z</time>
      </trkpt>
      <trkpt lat="48.45378" lon="-4.76119">
        <ele>14.661052</ele>
        <time>2012-03-04T19:23:26Z</time>
      </trkpt>
      <trkpt lat="48.45366" lon="-4.76215">
        <ele>21.780737</ele>
        <time>2012-03-04T19:23:26Z</time>
      </trkpt>
      <trkpt lat="48.45296" lon="-4.76193">
        <ele>17.534637</ele>
        <time>2012-03-04T19:23:26Z</time>
      </trkpt>
      <trkpt lat="48.4524" lon="-4.76209">
        <ele>17.904898</ele>
        <time>2012-03-04T19:23:26Z</time>
      </trkpt>
      <trkpt lat="48.45185" lon="-4.76215">
        <ele>17.926153</ele>
        <time>2012-03-04T19:23:26Z</time>
      </trkpt>
      <trkpt lat="48.45128" lon="-4.76248">
        <ele>19.440329</ele>
        <time>2012-03-04T19:23:26Z</time>
      </trkpt>
      <trkpt lat="48.45088" lon="-4.76271">
        <ele>20.502354</ele>
        <time>2012-03-04T19:23:26Z</time>
      </trkpt>
      <trkpt lat="48.45065" lon="-4.76256">
        <ele>21.302313</ele>
        <time>2012-03-04T19:23:26Z</time>
      </trkpt>
      <trkpt lat="48.45005" lon="-4.76282">
        <ele>26.123148</ele>
        <time>2012-03-04T19:23:26Z</time>
      </trkpt>
      <trkpt lat="48.44965" lon="-4.76291">
        <ele>28.734112</ele>
        <time>2012-03-04T19:23:26Z</time>
      </trkpt>
      <trkpt lat="48.44947" lon="-4.76322">
        <ele>29.819654</ele>
        <time>2012-03-04T19:23:26Z</time>
      </trkpt>
      <trkpt lat="48.44923" lon="-4.76329">
        <ele>31.186501</ele>
        <time>2012-03-04T19:23:26Z</time>
      </trkpt>
      <trkpt lat="48.44899" lon="-4.76321">
        <ele>31.696447</ele>
        <time>2012-03-04T19:23:26Z</time>
      </trkpt>
      <trkpt lat="48.44894" lon="-4.76278">
        <ele>32.931866</ele>
        <time>2012-03-04T19:23:26Z</time>
      </trkpt>
      <trkpt lat="48.44893" lon="-4.76255">
        <ele>33.637783</ele>
        <time>2012-03-04T19:23:26Z</time>
      </trkpt>
      <trkpt lat="48.44827" lon="-4.76272">
        <ele>34.487141</ele>
        <time>2012-03-04T19:23:26Z</time>
      </trkpt>
      <trkpt lat="48.44772" lon="-4.76269">
        <ele>35.030521</ele>
        <time>2012-03-04T19:23:26Z</time>
      </trkpt>
      <trkpt lat="48.44736" lon="-4.76264">
        <ele>35.39801</ele>
        <time>2012-03-04T19:23:26Z</time>
      </trkpt>
      <trkpt lat="48.44734" lon="-4.7621">
        <ele>37.100983</ele>
        <time>2012-03-04T19:23:26Z</time>
      </trkpt>
      <trkpt lat="48.44711" lon="-4.76193">
        <ele>38.02961</ele>
        <time>2012-03-04T19:23:26Z</time>
      </trkpt>
      <trkpt lat="48.44698" lon="-4.76202">
        <ele>38.002815</ele>
        <time>2012-03-04T19:23:26Z</time>
      </trkpt>
      <trkpt lat="48.44678" lon="-4.76209">
        <ele>38.147602</ele>
        <time>2012-03-04T19:23:26Z</time>
      </trkpt>
      <trkpt lat="48.4467" lon="-4.76491">
        <ele>28.065098</ele>
        <time>2012-03-04T19:23:26Z</time>
      </trkpt>
      <trkpt lat="48.44643" lon="-4.76656">
        <ele>21.357327</ele>
        <time>2012-03-04T19:23:26Z</time>
      </trkpt>
      <trkpt lat="48.44615" lon="-4.76724">
        <ele>19.69932</ele>
        <time>2012-03-04T19:23:26Z</time>
      </trkpt>
      <trkpt lat="48.44579" lon="-4.76908">
        <ele>21.198259</ele>
        <time>2012-03-04T19:23:26Z</time>
      </trkpt>
      <trkpt lat="48.44509" lon="-4.76914">
        <ele>16.43771</ele>
        <time>2012-03-04T19:23:26Z</time>
      </trkpt>
      <trkpt lat="48.44483" lon="-4.76941">
        <ele>14.14135</ele>
        <time>2012-03-04T19:23:26Z</time>
      </trkpt>
      <trkpt lat="48.44426" lon="-4.77022">
        <ele>13.008687</ele>
        <time>2012-03-04T19:23:26Z</time>
      </trkpt>
      <trkpt lat="48.44395" lon="-4.77123">
        <ele>10.627937</ele>
        <time>2012-03-04T19:23:26Z</time>
      </trkpt>
      <trkpt lat="48.44387" lon="-4.7726">
        <ele>8.508173</ele>
        <time>2012-03-04T19:23:26Z</time>
      </trkpt>
      <trkpt lat="48.44417" lon="-4.7735">
        <ele>8.763892</ele>
        <time>2012-03-04T19:23:26Z</time>
      </trkpt>
      <trkpt lat="48.44462" lon="-4.77406">
        <ele>9.358447</ele>
        <time>2012-03-04T19:23:26Z</time>
      </trkpt>
      <trkpt lat="48.44461" lon="-4.77502">
        <ele>7.127806</ele>
        <time>2012-03-04T19:23:26Z</time>
      </trkpt>
      <trkpt lat="48.4439" lon="-4.77588">
        <ele>6.403985</ele>
        <time>2012-03-04T19:23:26Z</time>
      </trkpt>
      <trkpt lat="48.44351" lon="-4.77596">
        <ele>7.478527</ele>
        <time>2012-03-04T19:23:26Z</time>
      </trkpt>
      <trkpt lat="48.44311" lon="-4.77674">
        <ele>6.539945</ele>
        <time>2012-03-04T19:23:26Z</time>
      </trkpt>
      <trkpt lat="48.44309" lon="-4.77723">
        <ele>5.651494</ele>
        <time>2012-03-04T19:23:26Z</time>
      </trkpt>
      <trkpt lat="48.44198" lon="-4.77851">
        <ele>8.407272</ele>
        <time>2012-03-04T19:23:26Z</time>
      </trkpt>
      <trkpt lat="48.44127" lon="-4.77927">
        <ele>7.630886</ele>
        <time>2012-03-04T19:23:26Z</time>
      </trkpt>
      <trkpt lat="48.44067" lon="-4.77971">
        <ele>6.696238</ele>
        <time>2012-03-04T19:23:26Z</time>
      </trkpt>
      <trkpt lat="48.43972" lon="-4.77977">
        <ele>8.367607</ele>
        <time>2012-03-04T19:23:26Z</time>
      </trkpt>
      <trkpt lat="48.43927" lon="-4.77975">
        <ele>8.665638</ele>
        <time>2012-03-04T19:23:26Z</time>
      </trkpt>
      <trkpt lat="48.43917" lon="-4.7801">
        <ele>6.876189</ele>
        <time>2012-03-04T19:23:26Z</time>
      </trkpt>
      <trkpt lat="48.43899" lon="-4.78054">
        <ele>5.109293</ele>
        <time>2012-03-04T19:23:26Z</time>
      </trkpt>
      <trkpt lat="48.43869" lon="-4.78072">
        <ele>5.79448</ele>
        <time>2012-03-04T19:23:26Z</time>
      </trkpt>
      <trkpt lat="48.43854" lon="-4.78097">
        <ele>6.097399</ele>
        <time>2012-03-04T19:23:26Z</time>
      </trkpt>
      <trkpt lat="48.43864" lon="-4.78139">
        <ele>4.657515</ele>
        <time>2012-03-04T19:23:26Z</time>
      </trkpt>
      <trkpt lat="48.43864" lon="-4.78192">
        <ele>5.472555</ele>
        <time>2012-03-04T19:23:26Z</time>
      </trkpt>
      <trkpt lat="48.43816" lon="-4.78245">
        <ele>5.641608</ele>
        <time>2012-03-04T19:23:26Z</time>
      </trkpt>
      <trkpt lat="48.4379" lon="-4.78231">
        <ele>7.334748</ele>
        <time>2012-03-04T19:23:26Z</time>
      </trkpt>
      <trkpt lat="48.43745" lon="-4.78334">
        <ele>8.898897</ele>
        <time>2012-03-04T19:23:26Z</time>
      </trkpt>
      <trkpt lat="48.4372" lon="-4.78438">
        <ele>7.255221</ele>
        <time>2012-03-04T19:23:26Z</time>
      </trkpt>
      <trkpt lat="48.43663" lon="-4.78442">
        <ele>8.19521</ele>
        <time>2012-03-04T19:23:26Z</time>
      </trkpt>
      <trkpt lat="48.4361" lon="-4.785">
        <ele>9.38893</ele>
        <time>2012-03-04T19:23:26Z</time>
      </trkpt>
      <trkpt lat="48.4356" lon="-4.78531">
        <ele>10.862555</ele>
        <time>2012-03-04T19:23:26Z</time>
      </trkpt>
      <trkpt lat="48.43506" lon="-4.78546">
        <ele>9.358068</ele>
        <time>2012-03-04T19:23:26Z</time>
      </trkpt>
      <trkpt lat="48.43436" lon="-4.78551">
        <ele>13.799481</ele>
        <time>2012-03-04T19:23:26Z</time>
      </trkpt>
      <trkpt lat="48.43371" lon="-4.78489">
        <ele>16.437469</ele>
        <time>2012-03-04T19:23:26Z</time>
      </trkpt>
      <trkpt lat="48.43283" lon="-4.78417">
        <ele>18.600266</ele>
        <time>2012-03-04T19:23:26Z</time>
      </trkpt>
      <trkpt lat="48.43282" lon="-4.7836">
        <ele>20.919172</ele>
        <time>2012-03-04T19:23:26Z</time>
      </trkpt>
      <trkpt lat="48.43235" lon="-4.78299">
        <ele>24.049652</ele>
        <time>2012-03-04T19:23:26Z</time>
      </trkpt>
      <trkpt lat="48.43187" lon="-4.78244">
        <ele>26.506012</ele>
        <time>2012-03-04T19:23:26Z</time>
      </trkpt>
      <trkpt lat="48.43138" lon="-4.78187">
        <ele>29.07222</ele>
        <time>2012-03-04T19:23:26Z</time>
      </trkpt>
      <trkpt lat="48.43111" lon="-4.78076">
        <ele>30.354216</ele>
        <time>2012-03-04T19:23:26Z</time>
      </trkpt>
      <trkpt lat="48.43108" lon="-4.77981">
        <ele>32.643169</ele>
        <time>2012-03-04T19:23:26Z</time>
      </trkpt>
      <trkpt lat="48.43113" lon="-4.77897">
        <ele>35.369102</ele>
        <time>2012-03-04T19:23:26Z</time>
      </trkpt>
      <trkpt lat="48.43107" lon="-4.77805">
        <ele>38.532486</ele>
        <time>2012-03-04T19:23:26Z</time>
      </trkpt>
      <trkpt lat="48.43062" lon="-4.77775">
        <ele>37.792641</ele>
        <time>2012-03-04T19:23:26Z</time>
      </trkpt>
      <trkpt lat="48.43027" lon="-4.77802">
        <ele>36.669464</ele>
        <time>2012-03-04T19:23:26Z</time>
      </trkpt>
      <trkpt lat="48.43007" lon="-4.77826">
        <ele>36.455917</ele>
        <time>2012-03-04T19:23:26Z</time>
      </trkpt>
      <trkpt lat="48.4296" lon="-4.77797">
        <ele>40.493225</ele>
        <time>2012-03-04T19:23:26Z</time>
      </trkpt>
      <trkpt lat="48.42847" lon="-4.77782">
        <ele>45.308582</ele>
        <time>2012-03-04T19:23:26Z</time>
      </trkpt>
      <trkpt lat="48.42839" lon="-4.77708">
        <ele>48.768829</ele>
        <time>2012-03-04T19:23:26Z</time>
      </trkpt>
      <trkpt lat="48.42846" lon="-4.77664">
        <ele>49.821171</ele>
        <time>2012-03-04T19:23:26Z</time>
      </trkpt>
      <trkpt lat="48.42826" lon="-4.77664">
        <ele>50.68359</ele>
        <time>2012-03-04T19:23:26Z</time>
      </trkpt>
      <trkpt lat="48.42806" lon="-4.77627">
        <ele>52.440033</ele>
        <time>2012-03-04T19:23:26Z</time>
      </trkpt>
      <trkpt lat="48.42802" lon="-4.77586">
        <ele>53.264061</ele>
        <time>2012-03-04T19:23:26Z</time>
      </trkpt>
      <trkpt lat="48.42769" lon="-4.77585">
        <ele>55.098949</ele>
        <time>2012-03-04T19:23:26Z</time>
      </trkpt>
      <trkpt lat="48.42682" lon="-4.77597">
        <ele>57.094948</ele>
        <time>2012-03-04T19:23:26Z</time>
      </trkpt>
      <trkpt lat="48.42603" lon="-4.77595">
        <ele>58.522823</ele>
        <time>2012-03-04T19:23:26Z</time>
      </trkpt>
      <trkpt lat="48.42538" lon="-4.77638">
        <ele>57.838879</ele>
        <time>2012-03-04T19:23:26Z</time>
      </trkpt>
      <trkpt lat="48.42462" lon="-4.77646">
        <ele>57.187111</ele>
        <time>2012-03-04T19:23:26Z</time>
      </trkpt>
      <trkpt lat="48.42459" lon="-4.77506">
        <ele>58.744263</ele>
        <time>2012-03-04T19:23:26Z</time>
      </trkpt>
      <trkpt lat="48.42433" lon="-4.77483">
        <ele>57.549416</ele>
        <time>2012-03-04T19:23:26Z</time>
      </trkpt>
      <trkpt lat="48.4235" lon="-4.77502">
        <ele>53.384022</ele>
        <time>2012-03-04T19:23:26Z</time>
      </trkpt>
      <trkpt lat="48.42192" lon="-4.77605">
        <ele>45.717388</ele>
        <time>2012-03-04T19:23:26Z</time>
      </trkpt>
      <trkpt lat="48.42096" lon="-4.77653">
        <ele>43.009724</ele>
        <time>2012-03-04T19:23:26Z</time>
      </trkpt>
      <trkpt lat="48.41995" lon="-4.7771">
        <ele>40.814732</ele>
        <time>2012-03-04T19:23:26Z</time>
      </trkpt>
      <trkpt lat="48.419" lon="-4.77735">
        <ele>39.395737</ele>
        <time>2012-03-04T19:23:26Z</time>
      </trkpt>
      <trkpt lat="48.41874" lon="-4.77558">
        <ele>41.379539</ele>
        <time>2012-03-04T19:23:26Z</time>
      </trkpt>
      <trkpt lat="48.41886" lon="-4.77402">
        <ele>45.007408</ele>
        <time>2012-03-04T19:23:26Z</time>
      </trkpt>
      <trkpt lat="48.41855" lon="-4.77259">
        <ele>47</ele>
        <time>2012-03-04T19:23:26Z</time>
      </trkpt>
      <trkpt lat="48.41805" lon="-4.77143">
        <ele>47.631104</ele>
        <time>2012-03-04T19:23:26Z</time>
      </trkpt>
      <trkpt lat="48.41868" lon="-4.77123">
        <ele>44.957901</ele>
        <time>2012-03-04T19:23:26Z</time>
      </trkpt>
      <trkpt lat="48.41938" lon="-4.76995">
        <ele>32.628006</ele>
        <time>2012-03-04T19:23:26Z</time>
      </trkpt>
      <trkpt lat="48.41872" lon="-4.76988">
        <ele>25.923052</ele>
        <time>2012-03-04T19:23:26Z</time>
      </trkpt>
      <trkpt lat="48.41769" lon="-4.76845">
        <ele>23.048615</ele>
        <time>2012-03-04T19:23:26Z</time>
      </trkpt>
      <trkpt lat="48.41688" lon="-4.76753">
        <ele>18.988476</ele>
        <time>2012-03-04T19:23:26Z</time>
      </trkpt>
      <trkpt lat="48.41608" lon="-4.7675">
        <ele>13.138334</ele>
        <time>2012-03-04T19:23:26Z</time>
      </trkpt>
      <trkpt lat="48.4157" lon="-4.76725">
        <ele>15.019853</ele>
        <time>2012-03-04T19:23:26Z</time>
      </trkpt>
      <trkpt lat="48.41544" lon="-4.7673">
        <ele>15.944746</ele>
        <time>2012-03-04T19:23:26Z</time>
      </trkpt>
      <trkpt lat="48.41481" lon="-4.7682">
        <ele>13.743821</ele>
        <time>2012-03-04T19:23:26Z</time>
      </trkpt>
      <trkpt lat="48.41414" lon="-4.76871">
        <ele>12.403016</ele>
        <time>2012-03-04T19:23:26Z</time>
      </trkpt>
      <trkpt lat="48.41351" lon="-4.76883">
        <ele>13.925237</ele>
        <time>2012-03-04T19:23:26Z</time>
      </trkpt>
      <trkpt lat="48.41285" lon="-4.76935">
        <ele>11.027675</ele>
        <time>2012-03-04T19:23:26Z</time>
      </trkpt>
      <trkpt lat="48.41204" lon="-4.77002">
        <ele>10.879833</ele>
        <time>2012-03-04T19:23:26Z</time>
      </trkpt>
      <trkpt lat="48.41168" lon="-4.77062">
        <ele>11.209169</ele>
        <time>2012-03-04T19:23:26Z</time>
      </trkpt>
      <trkpt lat="48.41039" lon="-4.77234">
        <ele>8.502182</ele>
        <time>2012-03-04T19:23:26Z</time>
      </trkpt>
      <trkpt lat="48.40955" lon="-4.77299">
        <ele>11.683976</ele>
        <time>2012-03-04T19:23:26Z</time>
      </trkpt>
      <trkpt lat="48.40906" lon="-4.77303">
        <ele>14.462211</ele>
        <time>2012-03-04T19:23:26Z</time>
      </trkpt>
      <trkpt lat="48.40893" lon="-4.77301">
        <ele>15.809158</ele>
        <time>2012-03-04T19:23:26Z</time>
      </trkpt>
      <trkpt lat="48.40869" lon="-4.77282">
        <ele>22.072353</ele>
        <time>2012-03-04T19:23:26Z</time>
      </trkpt>
      <trkpt lat="48.40783" lon="-4.77288">
        <ele>32.730087</ele>
        <time>2012-03-04T19:23:26Z</time>
      </trkpt>
      <trkpt lat="48.40731" lon="-4.77382">
        <ele>27.361601</ele>
        <time>2012-03-04T19:23:26Z</time>
      </trkpt>
      <trkpt lat="48.40684" lon="-4.77392">
        <ele>30.138163</ele>
        <time>2012-03-04T19:23:26Z</time>
      </trkpt>
      <trkpt lat="48.40593" lon="-4.77325">
        <ele>30.146</ele>
        <time>2012-03-04T19:23:26Z</time>
      </trkpt>
      <trkpt lat="48.40544" lon="-4.77272">
        <ele>31.377028</ele>
        <time>2012-03-04T19:23:26Z</time>
      </trkpt>
      <trkpt lat="48.40485" lon="-4.77229">
        <ele>26.753101</ele>
        <time>2012-03-04T19:23:26Z</time>
      </trkpt>
      <trkpt lat="48.40482" lon="-4.7713">
        <ele>25.680428</ele>
        <time>2012-03-04T19:23:26Z</time>
      </trkpt>
      <trkpt lat="48.40447" lon="-4.77081">
        <ele>24.131765</ele>
        <time>2012-03-04T19:23:26Z</time>
      </trkpt>
      <trkpt lat="48.40422" lon="-4.77201">
        <ele>18.774622</ele>
        <time>2012-03-04T19:23:26Z</time>
      </trkpt>
      <trkpt lat="48.4037" lon="-4.77276">
        <ele>20.861374</ele>
        <time>2012-03-04T19:23:26Z</time>
      </trkpt>
      <trkpt lat="48.40301" lon="-4.77235">
        <ele>32.804352</ele>
        <time>2012-03-04T19:23:26Z</time>
      </trkpt>
      <trkpt lat="48.40235" lon="-4.7723">
        <ele>37.646488</ele>
        <time>2012-03-04T19:23:26Z</time>
      </trkpt>
      <trkpt lat="48.40186" lon="-4.77251">
        <ele>39.831806</ele>
        <time>2012-03-04T19:23:26Z</time>
      </trkpt>
      <trkpt lat="48.40143" lon="-4.77247">
        <ele>42.312572</ele>
        <time>2012-03-04T19:23:26Z</time>
      </trkpt>
      <trkpt lat="48.40091" lon="-4.77202">
        <ele>40.549671</ele>
        <time>2012-03-04T19:23:26Z</time>
      </trkpt>
      <trkpt lat="48.40061" lon="-4.7718">
        <ele>37.104794</ele>
        <time>2012-03-04T19:23:26Z</time>
      </trkpt>
      <trkpt lat="48.40076" lon="-4.77089">
        <ele>40.992661</ele>
        <time>2012-03-04T19:23:26Z</time>
      </trkpt>
      <trkpt lat="48.40079" lon="-4.77019">
        <ele>43.455132</ele>
        <time>2012-03-04T19:23:26Z</time>
      </trkpt>
      <trkpt lat="48.4004" lon="-4.7706">
        <ele>39.178768</ele>
        <time>2012-03-04T19:23:26Z</time>
      </trkpt>
      <trkpt lat="48.40011" lon="-4.77054">
        <ele>37.564034</ele>
        <time>2012-03-04T19:23:26Z</time>
      </trkpt>
      <trkpt lat="48.39964" lon="-4.77098">
        <ele>32.109528</ele>
        <time>2012-03-04T19:23:26Z</time>
      </trkpt>
      <trkpt lat="48.39919" lon="-4.77106">
        <ele>33.974792</ele>
        <time>2012-03-04T19:23:26Z</time>
      </trkpt>
      <trkpt lat="48.39924" lon="-4.77014">
        <ele>39.392277</ele>
        <time>2012-03-04T19:23:26Z</time>
      </trkpt>
      <trkpt lat="48.39966" lon="-4.76785">
        <ele>46.776241</ele>
        <time>2012-03-04T19:23:26Z</time>
      </trkpt>
      <trkpt lat="48.40001" lon="-4.7677">
        <ele>46.500191</ele>
        <time>2012-03-04T19:23:26Z</time>
      </trkpt>
      <trkpt lat="48.40009" lon="-4.76652">
        <ele>47.597752</ele>
        <time>2012-03-04T19:23:26Z</time>
      </trkpt>
      <trkpt lat="48.40027" lon="-4.76398">
        <ele>50.091511</ele>
        <time>2012-03-04T19:23:26Z</time>
      </trkpt>
      <trkpt lat="48.40052" lon="-4.76335">
        <ele>51.149349</ele>
        <time>2012-03-04T19:23:26Z</time>
      </trkpt>
      <trkpt lat="48.40062" lon="-4.7616">
        <ele>54</ele>
        <time>2012-03-04T19:23:26Z</time>
      </trkpt>
      <trkpt lat="48.40093" lon="-4.76173">
        <ele>54.289474</ele>
        <time>2012-03-04T19:23:26Z</time>
      </trkpt>
      <trkpt lat="48.40091" lon="-4.76045">
        <ele>52.18948</ele>
        <time>2012-03-04T19:23:26Z</time>
      </trkpt>
      <trkpt lat="48.4003" lon="-4.75534">
        <ele>52.906876</ele>
        <time>2012-03-04T19:23:26Z</time>
      </trkpt>
      <trkpt lat="48.40026" lon="-4.75435">
        <ele>53.463978</ele>
        <time>2012-03-04T19:23:26Z</time>
      </trkpt>
      <trkpt lat="48.40051" lon="-4.75129">
        <ele>54.043922</ele>
        <time>2012-03-04T19:23:26Z</time>
      </trkpt>
      <trkpt lat="48.40036" lon="-4.74881">
        <ele>53.659901</ele>
        <time>2012-03-04T19:23:26Z</time>
      </trkpt>
      <trkpt lat="48.40029" lon="-4.74773">
        <ele>54.405895</ele>
        <time>2012-03-04T19:23:26Z</time>
      </trkpt>
      <trkpt lat="48.40209" lon="-4.74796">
        <ele>56.152748</ele>
        <time>2012-03-04T19:23:26Z</time>
      </trkpt>
      <trkpt lat="48.40332" lon="-4.74762">
        <ele>55.583374</ele>
        <time>2012-03-04T19:23:26Z</time>
      </trkpt>
      <trkpt lat="48.40452" lon="-4.74699">
        <ele>59.245461</ele>
        <time>2012-03-04T19:23:26Z</time>
      </trkpt>
      <trkpt lat="48.40531" lon="-4.74631">
        <ele>59.040932</ele>
        <time>2012-03-04T19:23:26Z</time>
      </trkpt>
      <trkpt lat="48.40669" lon="-4.74632">
        <ele>54.06723</ele>
        <time>2012-03-04T19:23:26Z</time>
      </trkpt>
      <trkpt lat="48.40685" lon="-4.74468">
        <ele>45.250866</ele>
        <time>2012-03-04T19:23:26Z</time>
      </trkpt>
      <trkpt lat="48.40645" lon="-4.74225">
        <ele>44.474354</ele>
        <time>2012-03-04T19:23:26Z</time>
      </trkpt>
      <trkpt lat="48.40636" lon="-4.74007">
        <ele>44.431339</ele>
        <time>2012-03-04T19:23:26Z</time>
      </trkpt>
      <trkpt lat="48.40654" lon="-4.73992">
        <ele>44.37389</ele>
        <time>2012-03-04T19:23:26Z</time>
      </trkpt>
      <trkpt lat="48.40669" lon="-4.73939">
        <ele>44.493225</ele>
        <time>2012-03-04T19:23:26Z</time>
      </trkpt>
      <trkpt lat="48.40668" lon="-4.73881">
        <ele>45.557953</ele>
        <time>2012-03-04T19:23:26Z</time>
      </trkpt>
      <trkpt lat="48.40673" lon="-4.7373">
        <ele>45.308716</ele>
        <time>2012-03-04T19:23:26Z</time>
      </trkpt>
      <trkpt lat="48.40677" lon="-4.73615">
        <ele>45.537483</ele>
        <time>2012-03-04T19:23:26Z</time>
      </trkpt>
      <trkpt lat="48.40697" lon="-4.73481">
        <ele>47.222229</ele>
        <time>2012-03-04T19:23:26Z</time>
      </trkpt>
      <trkpt lat="48.4075" lon="-4.73276">
        <ele>53.440674</ele>
        <time>2012-03-04T19:23:26Z</time>
      </trkpt>
      <trkpt lat="48.40741" lon="-4.72841">
        <ele>69.66584</ele>
        <time>2012-03-04T19:23:26Z</time>
      </trkpt>
      <trkpt lat="48.40773" lon="-4.72803">
        <ele>72.882256</ele>
        <time>2012-03-04T19:23:26Z</time>
      </trkpt>
      <trkpt lat="48.4082" lon="-4.72916">
        <ele>77.232399</ele>
        <time>2012-03-04T19:23:26Z</time>
      </trkpt>
      <trkpt lat="48.40852" lon="-4.72973">
        <ele>77.743484</ele>
        <time>2012-03-04T19:23:26Z</time>
      </trkpt>
      <trkpt lat="48.40941" lon="-4.72983">
        <ele>79.171646</ele>
        <time>2012-03-04T19:23:26Z</time>
      </trkpt>
      <trkpt lat="48.4093" lon="-4.72681">
        <ele>83.391045</ele>
        <time>2012-03-04T19:23:26Z</time>
      </trkpt>
      <trkpt lat="48.40936" lon="-4.7244">
        <ele>87.844078</ele>
        <time>2012-03-04T19:23:26Z</time>
      </trkpt>
      <trkpt lat="48.40982" lon="-4.72289">
        <ele>90.939255</ele>
        <time>2012-03-04T19:23:26Z</time>
      </trkpt>
      <trkpt lat="48.41003" lon="-4.72139">
        <ele>91.574089</ele>
        <time>2012-03-04T19:23:26Z</time>
      </trkpt>
      <trkpt lat="48.40993" lon="-4.71982">
        <ele>93.173424</ele>
        <time>2012-03-04T19:23:26Z</time>
      </trkpt>
      <trkpt lat="48.40864" lon="-4.72054">
        <ele>89.346443</ele>
        <time>2012-03-04T19:23:26Z</time>
      </trkpt>
      <trkpt lat="48.40776" lon="-4.7211">
        <ele>86.92762</ele>
        <time>2012-03-04T19:23:26Z</time>
      </trkpt>
      <trkpt lat="48.40656" lon="-4.7209">
        <ele>88.179497</ele>
        <time>2012-03-04T19:23:26Z</time>
      </trkpt>
      <trkpt lat="48.406" lon="-4.72092">
        <ele>86.049728</ele>
        <time>2012-03-04T19:23:26Z</time>
      </trkpt>
      <trkpt lat="48.406" lon="-4.72092">
        <ele>86.049728</ele>
        <time>2012-03-04T19:23:26Z</time>
      </trkpt>
      <trkpt lat="48.40621" lon="-4.71988">
        <ele>89.462662</ele>
        <time>2012-03-04T19:23:26Z</time>
      </trkpt>
      <trkpt lat="48.40495" lon="-4.71923">
        <ele>86.942085</ele>
        <time>2012-03-04T19:23:26Z</time>
      </trkpt>
      <trkpt lat="48.40512" lon="-4.7185">
        <ele>88.625008</ele>
        <time>2012-03-04T19:23:26Z</time>
      </trkpt>
      <trkpt lat="48.40482" lon="-4.71828">
        <ele>87.880112</ele>
        <time>2012-03-04T19:23:26Z</time>
      </trkpt>
      <trkpt lat="48.40482" lon="-4.71828">
        <ele>87.880112</ele>
        <time>2012-03-04T19:23:26Z</time>
      </trkpt>
      <trkpt lat="48.40482" lon="-4.71828">
        <ele>87.880112</ele>
        <time>2012-03-04T19:23:26Z</time>
      </trkpt>
      <trkpt lat="48.40512" lon="-4.7185">
        <ele>88.625008</ele>
        <time>2012-03-04T19:23:26Z</time>
      </trkpt>
      <trkpt lat="48.40495" lon="-4.71923">
        <ele>86.942085</ele>
        <time>2012-03-04T19:23:26Z</time>
      </trkpt>
      <trkpt lat="48.40513" lon="-4.71942">
        <ele>87.113426</ele>
        <time>2012-03-04T19:23:26Z</time>
      </trkpt>
      <trkpt lat="48.40518" lon="-4.71922">
        <ele>87.545296</ele>
        <time>2012-03-04T19:23:26Z</time>
      </trkpt>
      <trkpt lat="48.40621" lon="-4.71988">
        <ele>89.462662</ele>
        <time>2012-03-04T19:23:26Z</time>
      </trkpt>
      <trkpt lat="48.406" lon="-4.72092">
        <ele>86.049728</ele>
        <time>2012-03-04T19:23:26Z</time>
      </trkpt>
      <trkpt lat="48.4063" lon="-4.7208">
        <ele>87.187645</ele>
        <time>2012-03-04T19:23:26Z</time>
      </trkpt>
      <trkpt lat="48.40708" lon="-4.72097">
        <ele>88.799652</ele>
        <time>2012-03-04T19:23:26Z</time>
      </trkpt>
      <trkpt lat="48.40776" lon="-4.7211">
        <ele>86.92762</ele>
        <time>2012-03-04T19:23:26Z</time>
      </trkpt>
      <trkpt lat="48.40902" lon="-4.72036">
        <ele>91.066193</ele>
        <time>2012-03-04T19:23:26Z</time>
      </trkpt>
      <trkpt lat="48.40993" lon="-4.71982">
        <ele>93.173424</ele>
        <time>2012-03-04T19:23:26Z</time>
      </trkpt>
      <trkpt lat="48.40991" lon="-4.71875">
        <ele>95.28746</ele>
        <time>2012-03-04T19:23:26Z</time>
      </trkpt>
      <trkpt lat="48.40991" lon="-4.71726">
        <ele>98.517647</ele>
        <time>2012-03-04T19:23:26Z</time>
      </trkpt>
      <trkpt lat="48.41007" lon="-4.71569">
        <ele>102.562202</ele>
        <time>2012-03-04T19:23:26Z</time>
      </trkpt>
      <trkpt lat="48.41025" lon="-4.71443">
        <ele>106.561157</ele>
        <time>2012-03-04T19:23:26Z</time>
      </trkpt>
      <trkpt lat="48.41073" lon="-4.71264">
        <ele>113.665863</ele>
        <time>2012-03-04T19:23:26Z</time>
      </trkpt>
      <trkpt lat="48.4107" lon="-4.71028">
        <ele>120.909317</ele>
        <time>2012-03-04T19:23:26Z</time>
      </trkpt>
      <trkpt lat="48.41134" lon="-4.7103">
        <ele>122.425339</ele>
        <time>2012-03-04T19:23:26Z</time>
      </trkpt>
      <trkpt lat="48.41197" lon="-4.71063">
        <ele>119.669762</ele>
        <time>2012-03-04T19:23:26Z</time>
      </trkpt>
      <trkpt lat="48.41261" lon="-4.71097">
        <ele>116.370041</ele>
        <time>2012-03-04T19:23:26Z</time>
      </trkpt>
      <trkpt lat="48.41341" lon="-4.71149">
        <ele>110.371803</ele>
        <time>2012-03-04T19:23:26Z</time>
      </trkpt>
      <trkpt lat="48.41474" lon="-4.71298">
        <ele>108.247261</ele>
        <time>2012-03-04T19:23:26Z</time>
      </trkpt>
      <trkpt lat="48.41541" lon="-4.71213">
        <ele>108.780159</ele>
        <time>2012-03-04T19:23:26Z</time>
      </trkpt>
      <trkpt lat="48.41618" lon="-4.7115">
        <ele>105.404602</ele>
        <time>2012-03-04T19:23:26Z</time>
      </trkpt>
      <trkpt lat="48.41694" lon="-4.71117">
        <ele>100.062737</ele>
        <time>2012-03-04T19:23:26Z</time>
      </trkpt>
      <trkpt lat="48.41764" lon="-4.7109">
        <ele>95.248322</ele>
        <time>2012-03-04T19:23:26Z</time>
      </trkpt>
      <trkpt lat="48.41823" lon="-4.71002">
        <ele>95.577606</ele>
        <time>2012-03-04T19:23:26Z</time>
      </trkpt>
      <trkpt lat="48.41817" lon="-4.70913">
        <ele>99.658539</ele>
        <time>2012-03-04T19:23:26Z</time>
      </trkpt>
      <trkpt lat="48.41812" lon="-4.70818">
        <ele>105.647865</ele>
        <time>2012-03-04T19:23:26Z</time>
      </trkpt>
      <trkpt lat="48.41826" lon="-4.70726">
        <ele>113.267181</ele>
        <time>2012-03-04T19:23:26Z</time>
      </trkpt>
      <trkpt lat="48.41814" lon="-4.7063">
        <ele>120.748726</ele>
        <time>2012-03-04T19:23:26Z</time>
      </trkpt>
      <trkpt lat="48.41798" lon="-4.70502">
        <ele>127.212074</ele>
        <time>2012-03-04T19:23:26Z</time>
      </trkpt>
      <trkpt lat="48.41831" lon="-4.70442">
        <ele>129.117859</ele>
        <time>2012-03-04T19:23:26Z</time>
      </trkpt>
      <trkpt lat="48.4176" lon="-4.70227">
        <ele>135.192535</ele>
        <time>2012-03-04T19:23:26Z</time>
      </trkpt>
      <trkpt lat="48.41741" lon="-4.70115">
        <ele>136</ele>
        <time>2012-03-04T19:23:26Z</time>
      </trkpt>
      <trkpt lat="48.41761" lon="-4.69985">
        <ele>135.62059</ele>
        <time>2012-03-04T19:23:26Z</time>
      </trkpt>
      <trkpt lat="48.41698" lon="-4.69748">
        <ele>136</ele>
        <time>2012-03-04T19:23:26Z</time>
      </trkpt>
      <trkpt lat="48.41707" lon="-4.69563">
        <ele>136</ele>
        <time>2012-03-04T19:23:26Z</time>
      </trkpt>
      <trkpt lat="48.41743" lon="-4.69391">
        <ele>136</ele>
        <time>2012-03-04T19:23:26Z</time>
      </trkpt>
      <trkpt lat="48.41805" lon="-4.69376">
        <ele>135.451279</ele>
        <time>2012-03-04T19:23:26Z</time>
      </trkpt>
      <trkpt lat="48.41887" lon="-4.69399">
        <ele>133.215973</ele>
        <time>2012-03-04T19:23:26Z</time>
      </trkpt>
      <trkpt lat="48.41948" lon="-4.69432">
        <ele>129.602951</ele>
        <time>2012-03-04T19:23:26Z</time>
      </trkpt>
      <trkpt lat="48.41988" lon="-4.69455">
        <ele>128.296051</ele>
        <time>2012-03-04T19:23:26Z</time>
      </trkpt>
      <trkpt lat="48.42047" lon="-4.6944">
        <ele>127.757675</ele>
        <time>2012-03-04T19:23:26Z</time>
      </trkpt>
      <trkpt lat="48.42093" lon="-4.6945">
        <ele>126.702263</ele>
        <time>2012-03-04T19:23:26Z</time>
      </trkpt>
      <trkpt lat="48.42117" lon="-4.69262">
        <ele>127.340317</ele>
        <time>2012-03-04T19:23:26Z</time>
      </trkpt>
      <trkpt lat="48.42116" lon="-4.68904">
        <ele>124.390518</ele>
        <time>2012-03-04T19:23:26Z</time>
      </trkpt>
      <trkpt lat="48.4217" lon="-4.68575">
        <ele>132.047791</ele>
        <time>2012-03-04T19:23:26Z</time>
      </trkpt>
      <trkpt lat="48.42236" lon="-4.68324">
        <ele>137.303299</ele>
        <time>2012-03-04T19:23:26Z</time>
      </trkpt>
      <trkpt lat="48.42327" lon="-4.67871">
        <ele>137.342743</ele>
        <time>2012-03-04T19:23:26Z</time>
      </trkpt>
      <trkpt lat="48.42374" lon="-4.67672">
        <ele>133.134521</ele>
        <time>2012-03-04T19:23:26Z</time>
      </trkpt>
      <trkpt lat="48.42247" lon="-4.67288">
        <ele>127.504242</ele>
        <time>2012-03-04T19:23:26Z</time>
      </trkpt>
      <trkpt lat="48.42401" lon="-4.67167">
        <ele>122.170166</ele>
        <time>2012-03-04T19:23:26Z</time>
      </trkpt>
      <trkpt lat="48.42438" lon="-4.66993">
        <ele>123.472832</ele>
        <time>2012-03-04T19:23:26Z</time>
      </trkpt>
      <trkpt lat="48.42531" lon="-4.66541">
        <ele>108.441437</ele>
        <time>2012-03-04T19:23:26Z</time>
      </trkpt>
      <trkpt lat="48.42556" lon="-4.6644">
        <ele>106.066422</ele>
        <time>2012-03-04T19:23:26Z</time>
      </trkpt>
      <trkpt lat="48.42542" lon="-4.66428">
        <ele>106.876762</ele>
        <time>2012-03-04T19:23:26Z</time>
      </trkpt>
      <trkpt lat="48.42558" lon="-4.66381">
        <ele>104.770973</ele>
        <time>2012-03-04T19:23:26Z</time>
      </trkpt>
      <trkpt lat="48.42534" lon="-4.65993">
        <ele>99.387749</ele>
        <time>2012-03-04T19:23:26Z</time>
      </trkpt>
      <trkpt lat="48.42588" lon="-4.65926">
        <ele>93.803291</ele>
        <time>2012-03-04T19:23:26Z</time>
      </trkpt>
      <trkpt lat="48.42648" lon="-4.65897">
        <ele>87.836967</ele>
        <time>2012-03-04T19:23:26Z</time>
      </trkpt>
      <trkpt lat="48.42661" lon="-4.65864">
        <ele>85.298203</ele>
        <time>2012-03-04T19:23:26Z</time>
      </trkpt>
      <trkpt lat="48.42664" lon="-4.65648">
        <ele>79.850365</ele>
        <time>2012-03-04T19:23:26Z</time>
      </trkpt>
      <trkpt lat="48.42728" lon="-4.65666">
        <ele>77.819603</ele>
        <time>2012-03-04T19:23:26Z</time>
      </trkpt>
      <trkpt lat="48.42336" lon="-4.64868">
        <ele>40.462906</ele>
        <time>2012-03-04T19:23:26Z</time>
      </trkpt>
      <trkpt lat="48.42342" lon="-4.64803">
        <ele>35.876362</ele>
        <time>2012-03-04T19:23:26Z</time>
      </trkpt>
      <trkpt lat="48.42329" lon="-4.64749">
        <ele>33.575783</ele>
        <time>2012-03-04T19:23:26Z</time>
      </trkpt>
      <trkpt lat="48.42227" lon="-4.6466">
        <ele>36.423077</ele>
        <time>2012-03-04T19:23:26Z</time>
      </trkpt>
      <trkpt lat="48.42233" lon="-4.64548">
        <ele>46.104641</ele>
        <time>2012-03-04T19:23:26Z</time>
      </trkpt>
      <trkpt lat="48.4222" lon="-4.64496">
        <ele>49.055397</ele>
        <time>2012-03-04T19:23:26Z</time>
      </trkpt>
      <trkpt lat="48.42241" lon="-4.64443">
        <ele>47.642113</ele>
        <time>2012-03-04T19:23:26Z</time>
      </trkpt>
      <trkpt lat="48.42228" lon="-4.64305">
        <ele>44.579906</ele>
        <time>2012-03-04T19:23:26Z</time>
      </trkpt>
      <trkpt lat="48.42249" lon="-4.64255">
        <ele>45.49437</ele>
        <time>2012-03-04T19:23:26Z</time>
      </trkpt>
      <trkpt lat="48.42333" lon="-4.6422">
        <ele>50.888924</ele>
        <time>2012-03-04T19:23:26Z</time>
      </trkpt>
      <trkpt lat="48.42321" lon="-4.64071">
        <ele>61.442062</ele>
        <time>2012-03-04T19:23:26Z</time>
      </trkpt>
      <trkpt lat="48.42317" lon="-4.63862">
        <ele>69.0783</ele>
        <time>2012-03-04T19:23:26Z</time>
      </trkpt>
      <trkpt lat="48.42428" lon="-4.63871">
        <ele>65.827545</ele>
        <time>2012-03-04T19:23:26Z</time>
      </trkpt>
      <trkpt lat="48.42517" lon="-4.63926">
        <ele>63.017719</ele>
        <time>2012-03-04T19:23:26Z</time>
      </trkpt>
      <trkpt lat="48.42535" lon="-4.63882">
        <ele>64.747932</ele>
        <time>2012-03-04T19:23:26Z</time>
      </trkpt>
      <trkpt lat="48.42556" lon="-4.63726">
        <ele>70.821564</ele>
        <time>2012-03-04T19:23:26Z</time>
      </trkpt>
      <trkpt lat="48.42642" lon="-4.63748">
        <ele>71.448395</ele>
        <time>2012-03-04T19:23:26Z</time>
      </trkpt>
      <trkpt lat="48.42696" lon="-4.63732">
        <ele>73.07383</ele>
        <time>2012-03-04T19:23:26Z</time>
      </trkpt>
      <trkpt lat="48.42712" lon="-4.63576">
        <ele>76.654694</ele>
        <time>2012-03-04T19:23:26Z</time>
      </trkpt>
      <trkpt lat="48.42763" lon="-4.6359">
        <ele>77.456718</ele>
        <time>2012-03-04T19:23:26Z</time>
      </trkpt>
      <trkpt lat="48.42759" lon="-4.63354">
        <ele>76.566811</ele>
        <time>2012-03-04T19:23:26Z</time>
      </trkpt>
      <trkpt lat="48.42815" lon="-4.63234">
        <ele>74.021187</ele>
        <time>2012-03-04T19:23:26Z</time>
      </trkpt>
      <trkpt lat="48.42854" lon="-4.63251">
        <ele>72.186806</ele>
        <time>2012-03-04T19:23:26Z</time>
      </trkpt>
      <trkpt lat="48.42865" lon="-4.63179">
        <ele>74.300087</ele>
        <time>2012-03-04T19:23:26Z</time>
      </trkpt>
      <trkpt lat="48.42915" lon="-4.631">
        <ele>75.21917</ele>
        <time>2012-03-04T19:23:26Z</time>
      </trkpt>
      <trkpt lat="48.42963" lon="-4.6303">
        <ele>80.093216</ele>
        <time>2012-03-04T19:23:26Z</time>
      </trkpt>
      <trkpt lat="48.42998" lon="-4.6297">
        <ele>82.027405</ele>
        <time>2012-03-04T19:23:26Z</time>
      </trkpt>
      <trkpt lat="48.43025" lon="-4.62911">
        <ele>81.929222</ele>
        <time>2012-03-04T19:23:26Z</time>
      </trkpt>
      <trkpt lat="48.43088" lon="-4.62912">
        <ele>80.031036</ele>
        <time>2012-03-04T19:23:26Z</time>
      </trkpt>
      <trkpt lat="48.43131" lon="-4.62971">
        <ele>78.019905</ele>
        <time>2012-03-04T19:23:26Z</time>
      </trkpt>
      <trkpt lat="48.43156" lon="-4.63037">
        <ele>76.826103</ele>
        <time>2012-03-04T19:23:26Z</time>
      </trkpt>
      <trkpt lat="48.43179" lon="-4.63171">
        <ele>74.528511</ele>
        <time>2012-03-04T19:23:26Z</time>
      </trkpt>
      <trkpt lat="48.43186" lon="-4.63196">
        <ele>74.096413</ele>
        <time>2012-03-04T19:23:26Z</time>
      </trkpt>
      <trkpt lat="48.4315" lon="-4.63479">
        <ele>59.791378</ele>
        <time>2012-03-04T19:23:26Z</time>
      </trkpt>
      <trkpt lat="48.4326" lon="-4.63666">
        <ele>49.728092</ele>
        <time>2012-03-04T19:23:26Z</time>
      </trkpt>
      <trkpt lat="48.43415" lon="-4.63529">
        <ele>60.392025</ele>
        <time>2012-03-04T19:23:26Z</time>
      </trkpt>
      <trkpt lat="48.43414" lon="-4.63506">
        <ele>61.46101</ele>
        <time>2012-03-04T19:23:26Z</time>
      </trkpt>
      <trkpt lat="48.43607" lon="-4.63438">
        <ele>49.003307</ele>
        <time>2012-03-04T19:23:26Z</time>
      </trkpt>
      <trkpt lat="48.4368" lon="-4.63417">
        <ele>41.398716</ele>
        <time>2012-03-04T19:23:26Z</time>
      </trkpt>
      <trkpt lat="48.43774" lon="-4.63397">
        <ele>29.901487</ele>
        <time>2012-03-04T19:23:26Z</time>
      </trkpt>
      <trkpt lat="48.43778" lon="-4.63364">
        <ele>29.011292</ele>
        <time>2012-03-04T19:23:26Z</time>
      </trkpt>
      <trkpt lat="48.43745" lon="-4.63219">
        <ele>28.661198</ele>
        <time>2012-03-04T19:23:26Z</time>
      </trkpt>
      <trkpt lat="48.4385" lon="-4.63077">
        <ele>28.567915</ele>
        <time>2012-03-04T19:23:26Z</time>
      </trkpt>
      <trkpt lat="48.4384" lon="-4.63036">
        <ele>28.276819</ele>
        <time>2012-03-04T19:23:26Z</time>
      </trkpt>
      <trkpt lat="48.43818" lon="-4.62935">
        <ele>28</ele>
        <time>2012-03-04T19:23:26Z</time>
      </trkpt>
      <trkpt lat="48.43925" lon="-4.62805">
        <ele>29.823069</ele>
        <time>2012-03-04T19:23:26Z</time>
      </trkpt>
      <trkpt lat="48.43944" lon="-4.6279">
        <ele>30.364162</ele>
        <time>2012-03-04T19:23:26Z</time>
      </trkpt>
      <trkpt lat="48.44053" lon="-4.63101">
        <ele>27.909258</ele>
        <time>2012-03-04T19:23:26Z</time>
      </trkpt>
      <trkpt lat="48.44169" lon="-4.6299">
        <ele>27.602022</ele>
        <time>2012-03-04T19:23:26Z</time>
      </trkpt>
      <trkpt lat="48.44137" lon="-4.6293">
        <ele>30.46875</ele>
        <time>2012-03-04T19:23:26Z</time>
      </trkpt>
      <trkpt lat="48.44228" lon="-4.62862">
        <ele>33.585758</ele>
        <time>2012-03-04T19:23:26Z</time>
      </trkpt>
      <trkpt lat="48.44247" lon="-4.62882">
        <ele>34.115231</ele>
        <time>2012-03-04T19:23:26Z</time>
      </trkpt>
      <trkpt lat="48.44301" lon="-4.62803">
        <ele>42.1</ele>
      </trkpt>
    </trkseg>
  </trk>
</gpx>